| time (UTC) | temp F | wind direction | speed MPH | gust MPH | rain 1hr in | rain 24hr in | rain mn in | humidity % | barometer mb |
| 20260902090526 | 60 | 206 | 3.0 | 4.0 | 0.00 | 0.00 | 0.00 | 55 | 1010.7 |
| 20260902090024 | 60 | 176 | 2.0 | 3.0 | 0.00 | 0.00 | 0.00 | 54 | 1010.8 |
| 20260902085524 | 60 | 183 | 3.0 | 4.0 | 0.00 | 0.00 | 0.00 | 54 | 1010.9 |
| 20260902085019 | 60 | 172 | 3.0 | 3.0 | 0.00 | 0.00 | 0.00 | 54 | 1011.0 |
| 20260902084516 | 60 | 162 | 2.0 | 4.0 | 0.00 | 0.00 | 0.00 | 53 | 1011.1 |
| 20260902084011 | 62 | 186 | 2.0 | 3.0 | 0.00 | 0.00 | 0.00 | 52 | 1011.0 |
| 20260902083506 | 62 | 183 | 4.0 | 6.0 | 0.00 | 0.00 | 0.00 | 50 | 1011.2 |
| 20260902083000 | 62 | 180 | 3.0 | 6.0 | 0.00 | 0.00 | 0.00 | 50 | 1011.0 |
| 20260902082457 | 62 | 174 | 3.0 | 4.0 | 0.00 | 0.00 | 0.00 | 50 | 1011.1 |
| 20260902081953 | 62 | 194 | 2.0 | 4.0 | 0.00 | 0.00 | 0.00 | 50 | 1011.1 |
| 20260902081450 | 63 | 146 | 2.0 | 3.0 | 0.00 | 0.00 | 0.00 | 49 | 1011.2 |
| 20260902080949 | 64 | 170 | 2.0 | 3.0 | 0.00 | 0.00 | 0.00 | 47 | 1011.1 |
| 20260902080446 | 65 | 179 | 1.0 | 2.0 | 0.00 | 0.00 | 0.00 | 47 | 1011.2 |
| 20260902075945 | 65 | 220 | 0.0 | 0.0 | 0.00 | 0.00 | 0.00 | 46 | 1011.2 |
| 20260902075441 | 66 | 131 | 2.0 | 4.0 | 0.00 | 0.00 | 0.00 | 45 | 1011.0 |
| 20260902074936 | 65 | 155 | 5.0 | 7.0 | 0.00 | 0.00 | 0.00 | 46 | 1011.1 |
| 20260902074432 | 65 | 132 | 4.0 | 6.0 | 0.00 | 0.00 | 0.00 | 46 | 1011.1 |
| 20260902073926 | 66 | 182 | 2.0 | 7.0 | 0.00 | 0.00 | 0.00 | 45 | 1011.2 |
| 20260902073422 | 66 | 173 | 5.0 | 8.0 | 0.00 | 0.00 | 0.00 | 44 | 1011.2 |
| 20260902072918 | 67 | 175 | 7.0 | 9.0 | 0.00 | 0.00 | 0.00 | 43 | 1011.1 |
| 20260902072414 | 67 | 145 | 4.0 | 6.0 | 0.00 | 0.00 | 0.00 | 42 | 1011.2 |
| 20260902071911 | 68 | 146 | 4.0 | 10.0 | 0.00 | 0.00 | 0.00 | 41 | 1010.9 |
| 20260902071410 | 68 | 127 | 6.0 | 11.0 | 0.00 | 0.00 | 0.00 | 41 | 1010.7 |
| 20260902070906 | 68 | 114 | 9.0 | 11.0 | 0.00 | 0.00 | 0.00 | 42 | 1010.9 |
| 20260902070402 | 68 | 124 | 5.0 | 11.0 | 0.00 | 0.00 | 0.00 | 41 | 1010.9 |
| 20260902065900 | 68 | 128 | 6.0 | 9.0 | 0.00 | 0.00 | 0.00 | 41 | 1010.7 |
| 20260902065355 | 69 | 132 | 6.0 | 11.0 | 0.00 | 0.00 | 0.00 | 40 | 1010.8 |
| 20260902064851 | 68 | 110 | 6.0 | 11.0 | 0.00 | 0.00 | 0.00 | 41 | 1010.7 |
| 20260902064347 | 68 | 123 | 6.0 | 9.0 | 0.00 | 0.00 | 0.00 | 41 | 1010.9 |
| 20260902063842 | 69 | 142 | 6.0 | 9.0 | 0.00 | 0.00 | 0.00 | 41 | 1011.0 |
| 20260902063343 | 68 | 115 | 4.0 | 8.0 | 0.00 | 0.00 | 0.00 | 41 | 1011.0 |
| 20260902062843 | 68 | 82 | 6.0 | 8.0 | 0.00 | 0.00 | 0.00 | 41 | 1011.2 |
| 20260902062343 | 69 | 119 | 2.0 | 3.0 | 0.00 | 0.00 | 0.00 | 40 | 1011.2 |
| 20260902061842 | 69 | 78 | 4.0 | 4.0 | 0.00 | 0.00 | 0.00 | 41 | 1011.2 |
| 20260902061343 | 69 | 78 | 3.0 | 3.0 | 0.00 | 0.00 | 0.00 | 40 | 1011.4 |
| 20260902060839 | 69 | 76 | 3.0 | 4.0 | 0.00 | 0.00 | 0.00 | 40 | 1011.1 |
| 20260902060334 | 68 | 74 | 4.0 | 4.0 | 0.00 | 0.00 | 0.00 | 40 | 1011.4 |
| 20260902055830 | 68 | 78 | 3.0 | 6.0 | 0.00 | 0.00 | 0.00 | 40 | 1011.5 |
| 20260902055326 | 69 | 74 | 2.0 | 3.0 | 0.00 | 0.00 | 0.00 | 40 | 1011.4 |
| 20260902054821 | 68 | 105 | 4.0 | 6.0 | 0.00 | 0.00 | 0.00 | 40 | 1011.4 |
| 20260902054317 | 69 | 106 | 2.0 | 4.0 | 0.00 | 0.00 | 0.00 | 40 | 1011.2 |
| 20260902053813 | 68 | 93 | 4.0 | 8.0 | 0.00 | 0.00 | 0.00 | 40 | 1011.7 |
| 20260902053313 | 68 | 82 | 4.0 | 7.0 | 0.00 | 0.00 | 0.00 | 40 | 1011.4 |
| 20260902052811 | 69 | 82 | 4.0 | 7.0 | 0.00 | 0.00 | 0.00 | 39 | 1011.5 |
| 20260902052307 | 69 | 93 | 4.0 | 7.0 | 0.00 | 0.00 | 0.00 | 39 | 1011.4 |
| 20260902051802 | 69 | 99 | 5.0 | 8.0 | 0.00 | 0.00 | 0.00 | 40 | 1011.2 |
| 20260902051301 | 68 | 98 | 4.0 | 7.0 | 0.00 | 0.00 | 0.00 | 41 | 1011.6 |
| 20260902050756 | 68 | 115 | 4.0 | 8.0 | 0.00 | 0.00 | 0.00 | 41 | 1011.6 |
| 20260902050251 | 67 | 78 | 3.0 | 6.0 | 0.00 | 0.00 | 0.00 | 41 | 1011.2 |
| 20260902045751 | 68 | 67 | 5.0 | 7.0 | 0.00 | 0.00 | 0.00 | 41 | 1011.5 |
| 20260902045247 | 68 | 82 | 4.0 | 6.0 | 0.00 | 0.00 | 0.00 | 41 | 1011.4 |
| 20260902044743 | 68 | 94 | 4.0 | 6.0 | 0.00 | 0.00 | 0.00 | 41 | 1011.5 |
| 20260902044237 | 67 | 80 | 5.0 | 6.0 | 0.00 | 0.00 | 0.00 | 41 | 1011.5 |
| 20260902043732 | 68 | 85 | 5.0 | 6.0 | 0.00 | 0.00 | 0.00 | 40 | 1011.5 |
| 20260902043228 | 69 | 76 | 5.0 | 6.0 | 0.00 | 0.00 | 0.00 | 40 | 1011.5 |
| 20260902042727 | 69 | 81 | 4.0 | 7.0 | 0.00 | 0.00 | 0.00 | 39 | 1011.5 |
| 20260902042222 | 69 | 72 | 5.0 | 7.0 | 0.00 | 0.00 | 0.00 | 39 | 1011.5 |
| 20260902041718 | 69 | 87 | 4.0 | 7.0 | 0.00 | 0.00 | 0.00 | 39 | 1011.5 |
| 20260902041212 | 69 | 78 | 4.0 | 6.0 | 0.00 | 0.00 | 0.00 | 39 | 1011.5 |
| 20260902040712 | 69 | 67 | 4.0 | 6.0 | 0.00 | 0.00 | 0.00 | 39 | 1011.5 |
| 20260902040208 | 70 | 76 | 4.0 | 7.0 | 0.00 | 0.00 | 0.00 | 38 | 1011.5 |
| 20260902035706 | 71 | 83 | 6.0 | 8.0 | 0.00 | 0.00 | 0.00 | 37 | 1011.6 |
| 20260902035202 | 71 | 100 | 5.0 | 7.0 | 0.00 | 0.00 | 0.00 | 37 | 1011.5 |
| 20260902034701 | 71 | 98 | 4.0 | 6.0 | 0.00 | 0.00 | 0.00 | 37 | 1011.6 |
| 20260902034200 | 72 | 79 | 4.0 | 4.0 | 0.00 | 0.00 | 0.00 | 36 | 1011.6 |
| 20260902033659 | 72 | 109 | 4.0 | 6.0 | 0.00 | 0.00 | 0.00 | 36 | 1011.6 |
| 20260902033155 | 72 | 108 | 4.0 | 6.0 | 0.00 | 0.00 | 0.00 | 36 | 1011.7 |
| 20260902032653 | 73 | 85 | 4.0 | 7.0 | 0.00 | 0.00 | 0.00 | 35 | 1011.7 |
| 20260902032148 | 72 | 74 | 4.0 | 6.0 | 0.00 | 0.00 | 0.00 | 35 | 1011.6 |
| 20260902031648 | 73 | 74 | 4.0 | 6.0 | 0.00 | 0.00 | 0.00 | 35 | 1011.8 |
| 20260902031144 | 73 | 76 | 2.0 | 3.0 | 0.00 | 0.00 | 0.00 | 34 | 1011.7 |
| 20260902030639 | 73 | 72 | 4.0 | 6.0 | 0.00 | 0.00 | 0.00 | 35 | 1011.8 |
| 20260902030138 | 73 | 80 | 5.0 | 6.0 | 0.00 | 0.00 | 0.00 | 35 | 1011.7 |
| 20260902025638 | 73 | 69 | 4.0 | 4.0 | 0.00 | 0.00 | 0.00 | 35 | 1011.6 |
| 20260902025134 | 72 | 82 | 2.0 | 4.0 | 0.00 | 0.00 | 0.00 | 35 | 1011.6 |
| 20260902024629 | 72 | 74 | 2.0 | 3.0 | 0.00 | 0.00 | 0.00 | 36 | 1011.6 |
| 20260902024130 | 72 | 91 | 2.0 | 3.0 | 0.00 | 0.00 | 0.00 | 36 | 1011.4 |
| 20260902023626 | 72 | 94 | 3.0 | 3.0 | 0.00 | 0.00 | 0.00 | 35 | 1011.5 |
| 20260902023126 | 72 | 109 | 2.0 | 3.0 | 0.00 | 0.00 | 0.00 | 35 | 1011.6 |
| 20260902022625 | 73 | 89 | 1.0 | 3.0 | 0.00 | 0.00 | 0.00 | 35 | 1011.6 |
| 20260902022122 | 73 | 125 | 2.0 | 4.0 | 0.00 | 0.00 | 0.00 | 35 | 1011.5 |
| 20260902021617 | 73 | 96 | 2.0 | 3.0 | 0.00 | 0.00 | 0.00 | 34 | 1011.6 |
| 20260902021117 | 74 | 112 | 3.0 | 4.0 | 0.00 | 0.00 | 0.00 | 33 | 1011.6 |
| 20260902020613 | 75 | 106 | 4.0 | 8.0 | 0.00 | 0.00 | 0.00 | 32 | 1011.5 |
| 20260902020108 | 75 | 120 | 4.0 | 8.0 | 0.00 | 0.00 | 0.00 | 31 | 1011.4 |
| 20260902015604 | 76 | 86 | 4.0 | 8.0 | 0.00 | 0.00 | 0.00 | 30 | 1011.6 |
| 20260902015059 | 76 | 87 | 3.0 | 4.0 | 0.00 | 0.00 | 0.00 | 29 | 1011.5 |
| 20260902014555 | 76 | 95 | 2.0 | 3.0 | 0.00 | 0.00 | 0.00 | 29 | 1011.4 |
| 20260902014050 | 77 | 79 | 2.0 | 3.0 | 0.00 | 0.00 | 0.00 | 29 | 1011.1 |
| 20260902013550 | 77 | 96 | 4.0 | 4.0 | 0.00 | 0.00 | 0.00 | 29 | 1011.6 |
| 20260902013046 | 78 | 82 | 3.0 | 3.0 | 0.00 | 0.00 | 0.00 | 29 | 1011.2 |
| 20260902012547 | 78 | 78 | 3.0 | 3.0 | 0.00 | 0.00 | 0.00 | 28 | 1011.6 |
| 20260902012042 | 78 | 102 | 3.0 | 3.0 | 0.00 | 0.00 | 0.00 | 28 | 1011.6 |
| 20260902011538 | 79 | 90 | 3.0 | 4.0 | 0.00 | 0.00 | 0.00 | 27 | 1011.4 |
| 20260902011037 | 80 | 117 | 3.0 | 4.0 | 0.00 | 0.00 | 0.00 | 27 | 1011.6 |
| 20260902010536 | 81 | 133 | 2.0 | 3.0 | 0.00 | 0.00 | 0.00 | 27 | 1011.5 |
| 20260902010032 | 82 | 128 | 2.0 | 3.0 | 0.00 | 0.00 | 0.00 | 26 | 1011.5 |
| 20260902005530 | 82 | 135 | 2.0 | 3.0 | 0.00 | 0.00 | 0.00 | 26 | 1011.8 |
| 20260902005027 | 82 | 148 | 1.0 | 2.0 | 0.00 | 0.00 | 0.00 | 25 | 1011.6 |
| 20260902004526 | 82 | 135 | 3.0 | 4.0 | 0.00 | 0.00 | 0.00 | 25 | 1011.5 |
| 20260902004021 | 83 | 144 | 2.0 | 3.0 | 0.00 | 0.00 | 0.00 | 25 | 1011.7 |
| 20260902003517 | 84 | 124 | 3.0 | 3.0 | 0.00 | 0.00 | 0.00 | 24 | 1011.8 |
| 20260902003012 | 83 | 183 | 2.0 | 4.0 | 0.00 | 0.00 | 0.00 | 24 | 1011.6 |
| 20260902002508 | 84 | 129 | 4.0 | 7.0 | 0.00 | 0.00 | 0.00 | 24 | 1011.7 |
| 20260902002002 | 84 | 123 | 2.0 | 6.0 | 0.00 | 0.00 | 0.00 | 24 | 1011.7 |
| 20260902001456 | 84 | 149 | 5.0 | 6.0 | 0.00 | 0.00 | 0.00 | 24 | 1011.7 |
| 20260902000952 | 84 | 136 | 2.0 | 7.0 | 0.00 | 0.00 | 0.00 | 23 | 1011.9 |
| 20260902000447 | 84 | 166 | 4.0 | 6.0 | 0.00 | 0.00 | 0.00 | 24 | 1011.8 |
| 20260901235942 | 84 | 179 | 2.0 | 4.0 | 0.00 | 0.00 | 0.00 | 23 | 1011.7 |
| 20260901235436 | 84 | 165 | 3.0 | 6.0 | 0.00 | 0.00 | 0.00 | 23 | 1011.8 |
| 20260901234932 | 84 | 141 | 3.0 | 4.0 | 0.00 | 0.00 | 0.00 | 23 | 1011.7 |
| 20260901234431 | 84 | 108 | 5.0 | 6.0 | 0.00 | 0.00 | 0.00 | 23 | 1012.0 |
| 20260901233926 | 84 | 172 | 3.0 | 6.0 | 0.00 | 0.00 | 0.00 | 23 | 1011.8 |
| 20260901233421 | 85 | 188 | 5.0 | 7.0 | 0.00 | 0.00 | 0.00 | 22 | 1011.8 |
| 20260901232918 | 84 | 127 | 4.0 | 6.0 | 0.00 | 0.00 | 0.00 | 23 | 1011.7 |
| 20260901232418 | 84 | 80 | 2.0 | 6.0 | 0.00 | 0.00 | 0.00 | 23 | 1012.1 |
| 20260901231913 | 84 | 208 | 4.0 | 6.0 | 0.00 | 0.00 | 0.00 | 23 | 1012.0 |
| 20260901231409 | 84 | 190 | 3.0 | 6.0 | 0.00 | 0.00 | 0.00 | 23 | 1011.8 |
| 20260901230906 | 84 | 140 | 4.0 | 7.0 | 0.00 | 0.00 | 0.00 | 24 | 1012.1 |
| 20260901230405 | 85 | 166 | 7.0 | 10.0 | 0.00 | 0.00 | 0.00 | 23 | 1012.2 |
| 20260901225901 | 85 | 177 | 6.0 | 9.0 | 0.00 | 0.00 | 0.00 | 23 | 1012.0 |
| 20260901225400 | 84 | 219 | 1.0 | 6.0 | 0.00 | 0.00 | 0.00 | 23 | 1012.1 |
| 20260901224855 | 84 | 180 | 4.0 | 10.0 | 0.00 | 0.00 | 0.00 | 24 | 1012.2 |
| 20260901224352 | 84 | 74 | 3.0 | 6.0 | 0.00 | 0.00 | 0.00 | 24 | 1012.3 |
| 20260901223848 | 84 | 198 | 7.0 | 14.0 | 0.00 | 0.00 | 0.00 | 24 | 1012.2 |
| 20260901223343 | 84 | 87 | 6.0 | 7.0 | 0.00 | 0.00 | 0.00 | 25 | 1012.2 |
| 20260901222838 | 83 | 122 | 6.0 | 7.0 | 0.00 | 0.00 | 0.00 | 25 | 1012.6 |
| 20260901222335 | 84 | 122 | 7.0 | 9.0 | 0.00 | 0.00 | 0.00 | 25 | 1012.6 |
| 20260901221830 | 84 | 142 | 9.0 | 11.0 | 0.00 | 0.00 | 0.00 | 25 | 1012.6 |
| 20260901221326 | 84 | 86 | 7.0 | 14.0 | 0.00 | 0.00 | 0.00 | 25 | 1012.6 |
| 20260901220825 | 85 | 145 | 6.0 | 8.0 | 0.00 | 0.00 | 0.00 | 25 | 1012.4 |
| 20260901220324 | 86 | 134 | 8.0 | 10.0 | 0.00 | 0.00 | 0.00 | 25 | 1012.8 |
| 20260901215823 | 85 | 124 | 7.0 | 11.0 | 0.00 | 0.00 | 0.00 | 25 | 1013.0 |
| 20260901215323 | 84 | 104 | 4.0 | 8.0 | 0.00 | 0.00 | 0.00 | 25 | 1012.8 |
| 20260901214821 | 84 | 131 | 4.0 | 6.0 | 0.00 | 0.00 | 0.00 | 25 | 1012.9 |
| 20260901214320 | 82 | 166 | 5.0 | 7.0 | 0.00 | 0.00 | 0.00 | 26 | 1012.9 |
| 20260901213815 | 82 | 194 | 6.0 | 8.0 | 0.00 | 0.00 | 0.00 | 25 | 1013.0 |
| 20260901213315 | 82 | 151 | 4.0 | 8.0 | 0.00 | 0.00 | 0.00 | 26 | 1013.1 |
| 20260901212810 | 82 | 162 | 4.0 | 8.0 | 0.00 | 0.00 | 0.00 | 26 | 1013.1 |
| 20260901212306 | 82 | 151 | 5.0 | 8.0 | 0.00 | 0.00 | 0.00 | 26 | 1013.1 |
| 20260901211801 | 83 | 114 | 6.0 | 9.0 | 0.00 | 0.00 | 0.00 | 26 | 1013.1 |
| 20260901211257 | 84 | 122 | 8.0 | 10.0 | 0.00 | 0.00 | 0.00 | 26 | 1013.1 |
| 20260901210753 | 86 | 203 | 7.0 | 9.0 | 0.00 | 0.00 | 0.00 | 24 | 1013.3 |
| 20260901210248 | 85 | 176 | 3.0 | 7.0 | 0.00 | 0.00 | 0.00 | 26 | 1013.1 |
| 20260901205744 | 83 | 217 | 7.0 | 9.0 | 0.00 | 0.00 | 0.00 | 25 | 1013.3 |
| 20260901205244 | 84 | 154 | 7.0 | 9.0 | 0.00 | 0.00 | 0.00 | 26 | 1013.4 |
| 20260901204739 | 85 | 217 | 6.0 | 8.0 | 0.00 | 0.00 | 0.00 | 25 | 1013.7 |
| 20260901204235 | 83 | 157 | 3.0 | 8.0 | 0.00 | 0.00 | 0.00 | 26 | 1013.7 |
| 20260901203730 | 81 | 226 | 3.0 | 4.0 | 0.00 | 0.00 | 0.00 | 26 | 1013.5 |
| 20260901203230 | 81 | 202 | 1.0 | 7.0 | 0.00 | 0.00 | 0.00 | 27 | 1013.7 |
| 20260901202729 | 81 | 185 | 5.0 | 8.0 | 0.00 | 0.00 | 0.00 | 27 | 1013.8 |
| 20260901202225 | 81 | 204 | 6.0 | 9.0 | 0.00 | 0.00 | 0.00 | 26 | 1013.8 |
| 20260901201721 | 82 | 201 | 6.0 | 10.0 | 0.00 | 0.00 | 0.00 | 26 | 1014.0 |
| 20260901201220 | 83 | 98 | 5.0 | 9.0 | 0.00 | 0.00 | 0.00 | 26 | 1013.9 |
| 20260901200714 | 82 | 213 | 3.0 | 8.0 | 0.00 | 0.00 | 0.00 | 26 | 1014.0 |
| 20260901200209 | 81 | 216 | 4.0 | 7.0 | 0.00 | 0.00 | 0.00 | 27 | 1014.2 |
| 20260901195707 | 81 | 205 | 6.0 | 8.0 | 0.00 | 0.00 | 0.00 | 26 | 1014.2 |
| 20260901195201 | 80 | 149 | 4.0 | 13.0 | 0.00 | 0.00 | 0.00 | 28 | 1014.2 |
| 20260901194658 | 80 | 134 | 5.0 | 11.0 | 0.00 | 0.00 | 0.00 | 27 | 1014.4 |
| 20260901194152 | 80 | 100 | 5.0 | 9.0 | 0.00 | 0.00 | 0.00 | 28 | 1014.4 |
| 20260901193643 | 80 | 194 | 7.0 | 9.0 | 0.00 | 0.00 | 0.00 | 28 | 1014.3 |
| 20260901193142 | 80 | 118 | 7.0 | 9.0 | 0.00 | 0.00 | 0.00 | 29 | 1014.3 |
| 20260901192637 | 79 | 173 | 5.0 | 11.0 | 0.00 | 0.00 | 0.00 | 30 | 1014.3 |
| 20260901192132 | 79 | 132 | 8.0 | 11.0 | 0.00 | 0.00 | 0.00 | 30 | 1014.4 |
| 20260901191628 | 78 | 165 | 6.0 | 8.0 | 0.00 | 0.00 | 0.00 | 31 | 1014.5 |
| 20260901191124 | 77 | 117 | 6.0 | 10.0 | 0.00 | 0.00 | 0.00 | 31 | 1014.7 |
| 20260901190620 | 77 | 171 | 7.0 | 9.0 | 0.00 | 0.00 | 0.00 | 32 | 1014.6 |
| 20260901190119 | 77 | 168 | 5.0 | 10.0 | 0.00 | 0.00 | 0.00 | 31 | 1015.1 |
| 20260901185618 | 78 | 139 | 7.0 | 10.0 | 0.00 | 0.00 | 0.00 | 31 | 1014.7 |
| 20260901185116 | 78 | 121 | 7.0 | 9.0 | 0.00 | 0.00 | 0.00 | 31 | 1014.9 |
| 20260901184612 | 78 | 152 | 5.0 | 10.0 | 0.00 | 0.00 | 0.00 | 31 | 1014.9 |
| 20260901184108 | 78 | 133 | 6.0 | 7.0 | 0.00 | 0.00 | 0.00 | 32 | 1014.9 |
| 20260901183608 | 77 | 115 | 8.0 | 9.0 | 0.00 | 0.00 | 0.00 | 32 | 1015.0 |
| 20260901183103 | 76 | 167 | 7.0 | 11.0 | 0.00 | 0.00 | 0.00 | 31 | 1015.1 |
| 20260901182559 | 77 | 172 | 8.0 | 11.0 | 0.00 | 0.00 | 0.00 | 31 | 1015.3 |
| 20260901182059 | 77 | 105 | 8.0 | 10.0 | 0.00 | 0.00 | 0.00 | 30 | 1015.3 |
| 20260901181559 | 76 | 131 | 5.0 | 11.0 | 0.00 | 0.00 | 0.00 | 33 | 1015.4 |
| 20260901181058 | 75 | 109 | 5.0 | 11.0 | 0.00 | 0.00 | 0.00 | 34 | 1015.4 |
| 20260901180557 | 75 | 116 | 5.0 | 13.0 | 0.00 | 0.00 | 0.00 | 34 | 1015.5 |
| 20260901180052 | 74 | 124 | 6.0 | 11.0 | 0.00 | 0.00 | 0.00 | 34 | 1015.4 |
| 20260901175551 | 74 | 142 | 7.0 | 9.0 | 0.00 | 0.00 | 0.00 | 35 | 1015.4 |
| 20260901175051 | 74 | 95 | 5.0 | 11.0 | 0.00 | 0.00 | 0.00 | 36 | 1015.6 |
| 20260901174547 | 73 | 117 | 7.0 | 13.0 | 0.00 | 0.00 | 0.00 | 36 | 1015.7 |
| 20260901174043 | 74 | 100 | 6.0 | 13.0 | 0.00 | 0.00 | 0.00 | 36 | 1015.8 |
| 20260901173538 | 73 | 118 | 6.0 | 11.0 | 0.00 | 0.00 | 0.00 | 37 | 1015.7 |
| 20260901173034 | 72 | 100 | 6.0 | 11.0 | 0.00 | 0.00 | 0.00 | 37 | 1015.7 |
| 20260901172529 | 72 | 113 | 7.0 | 9.0 | 0.00 | 0.00 | 0.00 | 38 | 1015.5 |
| 20260901172027 | 71 | 79 | 4.0 | 9.0 | 0.00 | 0.00 | 0.00 | 38 | 1015.8 |
| 20260901171526 | 71 | 109 | 9.0 | 11.0 | 0.00 | 0.00 | 0.00 | 37 | 1015.7 |
| 20260901171025 | 71 | 104 | 10.0 | 11.0 | 0.00 | 0.00 | 0.00 | 38 | 1015.7 |
| 20260901170526 | 71 | 118 | 9.0 | 11.0 | 0.00 | 0.00 | 0.00 | 38 | 1015.7 |
| 20260901170021 | 71 | 119 | 12.0 | 13.0 | 0.00 | 0.00 | 0.00 | 39 | 1015.9 |
| 20260901165520 | 70 | 98 | 5.0 | 10.0 | 0.00 | 0.00 | 0.00 | 40 | 1015.8 |
| 20260901165016 | 70 | 132 | 9.0 | 11.0 | 0.00 | 0.00 | 0.00 | 40 | 1016.1 |
| 20260901164511 | 70 | 73 | 6.0 | 11.0 | 0.00 | 0.00 | 0.00 | 40 | 1015.9 |
| 20260901164007 | 71 | 88 | 8.0 | 11.0 | 0.00 | 0.00 | 0.00 | 39 | 1016.2 |
| 20260901163502 | 70 | 128 | 7.0 | 14.0 | 0.00 | 0.00 | 0.00 | 40 | 1016.1 |
| 20260901163000 | 69 | 122 | 9.0 | 14.0 | 0.00 | 0.00 | 0.00 | 40 | 1016.1 |
| 20260901162456 | 69 | 92 | 6.0 | 13.0 | 0.00 | 0.00 | 0.00 | 41 | 1016.1 |
| 20260901161955 | 69 | 89 | 6.0 | 13.0 | 0.00 | 0.00 | 0.00 | 41 | 1016.1 |
| 20260901161454 | 69 | 113 | 6.0 | 8.0 | 0.00 | 0.00 | 0.00 | 41 | 1016.1 |
| 20260901160949 | 68 | 127 | 10.0 | 11.0 | 0.00 | 0.00 | 0.00 | 42 | 1016.3 |
| 20260901160445 | 67 | 121 | 5.0 | 11.0 | 0.00 | 0.00 | 0.00 | 44 | 1016.1 |
| 20260901155944 | 67 | 125 | 11.0 | 13.0 | 0.00 | 0.00 | 0.00 | 43 | 1016.4 |
| 20260901155444 | 67 | 106 | 8.0 | 13.0 | 0.00 | 0.00 | 0.00 | 44 | 1016.2 |
| 20260901154941 | 66 | 122 | 10.0 | 11.0 | 0.00 | 0.00 | 0.00 | 44 | 1016.2 |
| 20260901154440 | 66 | 134 | 9.0 | 10.0 | 0.00 | 0.00 | 0.00 | 44 | 1015.9 |
| 20260901153935 | 66 | 122 | 9.0 | 10.0 | 0.00 | 0.00 | 0.00 | 45 | 1016.3 |
| 20260901153430 | 66 | 121 | 11.0 | 15.0 | 0.00 | 0.00 | 0.00 | 45 | 1016.2 |
| 20260901152929 | 66 | 86 | 6.0 | 9.0 | 0.00 | 0.00 | 0.00 | 46 | 1016.4 |
| 20260901152424 | 65 | 90 | 7.0 | 9.0 | 0.00 | 0.00 | 0.00 | 47 | 1016.3 |
| 20260901151924 | 65 | 100 | 6.0 | 10.0 | 0.00 | 0.00 | 0.00 | 47 | 1016.5 |
| 20260901151423 | 64 | 103 | 6.0 | 8.0 | 0.00 | 0.00 | 0.00 | 49 | 1016.3 |
| 20260901150923 | 64 | 106 | 6.0 | 9.0 | 0.00 | 0.00 | 0.00 | 49 | 1016.5 |
| 20260901150421 | 64 | 131 | 3.0 | 8.0 | 0.00 | 0.00 | 0.00 | 50 | 1016.6 |
| 20260901145919 | 63 | 89 | 4.0 | 7.0 | 0.00 | 0.00 | 0.00 | 50 | 1016.7 |
| 20260901145419 | 63 | 143 | 4.0 | 6.0 | 0.00 | 0.00 | 0.00 | 51 | 1016.7 |
| 20260901144913 | 62 | 90 | 5.0 | 7.0 | 0.00 | 0.00 | 0.00 | 53 | 1016.6 |
| 20260901144409 | 61 | 112 | 3.0 | 6.0 | 0.00 | 0.00 | 0.00 | 54 | 1016.6 |
| 20260901143905 | 61 | 124 | 5.0 | 7.0 | 0.00 | 0.00 | 0.00 | 54 | 1016.5 |
| 20260901143401 | 60 | 120 | 3.0 | 4.0 | 0.00 | 0.00 | 0.00 | 55 | 1016.6 |
| 20260901142857 | 60 | 141 | 3.0 | 4.0 | 0.00 | 0.00 | 0.00 | 55 | 1016.5 |
| 20260901142355 | 60 | 115 | 2.0 | 3.0 | 0.00 | 0.00 | 0.00 | 56 | 1016.7 |
| 20260901141851 | 59 | 158 | 2.0 | 3.0 | 0.00 | 0.00 | 0.00 | 58 | 1016.7 |
| 20260901141346 | 58 | 165 | 2.0 | 4.0 | 0.00 | 0.00 | 0.00 | 58 | 1016.6 |
| 20260901140845 | 59 | 115 | 3.0 | 3.0 | 0.00 | 0.00 | 0.00 | 58 | 1016.8 |
| 20260901140343 | 58 | 128 | 3.0 | 3.0 | 0.00 | 0.00 | 0.00 | 59 | 1016.6 |
| 20260901135838 | 58 | 98 | 2.0 | 3.0 | 0.00 | 0.00 | 0.00 | 59 | 1016.6 |
| 20260901135333 | 57 | 124 | 2.0 | 3.0 | 0.00 | 0.00 | 0.00 | 60 | 1016.5 |
| 20260901134829 | 57 | 94 | 2.0 | 3.0 | 0.00 | 0.00 | 0.00 | 60 | 1016.4 |
| 20260901134325 | 56 | 120 | 2.0 | 3.0 | 0.00 | 0.00 | 0.00 | 62 | 1016.4 |
| 20260901133819 | 55 | 66 | 2.0 | 3.0 | 0.00 | 0.00 | 0.00 | 62 | 1016.3 |
| 20260901133318 | 54 | 37 | 2.0 | 3.0 | 0.00 | 0.00 | 0.00 | 64 | 1016.5 |
| 20260901132817 | 54 | 50 | 3.0 | 3.0 | 0.00 | 0.00 | 0.00 | 65 | 1016.3 |
| 20260901132312 | 53 | 56 | 4.0 | 4.0 | 0.00 | 0.00 | 0.00 | 66 | 1016.1 |
| 20260901131811 | 53 | 67 | 4.0 | 6.0 | 0.00 | 0.00 | 0.00 | 66 | 1016.2 |
| 20260901131306 | 53 | 54 | 2.0 | 4.0 | 0.00 | 0.00 | 0.00 | 67 | 1016.2 |
| 20260901130801 | 53 | 51 | 4.0 | 4.0 | 0.00 | 0.00 | 0.00 | 66 | 1015.9 |
| 20260901130300 | 53 | 71 | 4.0 | 6.0 | 0.00 | 0.00 | 0.00 | 66 | 1016.1 |
| 20260901125758 | 53 | 75 | 4.0 | 6.0 | 0.00 | 0.00 | 0.00 | 66 | 1016.2 |
| 20260901125253 | 53 | 59 | 4.0 | 7.0 | 0.00 | 0.00 | 0.00 | 67 | 1016.2 |
| 20260901124748 | 53 | 72 | 5.0 | 6.0 | 0.00 | 0.00 | 0.00 | 66 | 1016.3 |
| 20260901124243 | 53 | 76 | 6.0 | 7.0 | 0.00 | 0.00 | 0.00 | 66 | 1016.2 |
| 20260901123742 | 53 | 79 | 4.0 | 7.0 | 0.00 | 0.00 | 0.00 | 65 | 1016.2 |
| 20260901123237 | 53 | 62 | 5.0 | 6.0 | 0.00 | 0.00 | 0.00 | 64 | 1016.3 |
| 20260901122737 | 53 | 70 | 6.0 | 6.0 | 0.00 | 0.00 | 0.00 | 64 | 1016.4 |
| 20260901122231 | 53 | 70 | 4.0 | 4.0 | 0.00 | 0.00 | 0.00 | 64 | 1016.1 |
| 20260901121730 | 54 | 72 | 4.0 | 4.0 | 0.00 | 0.00 | 0.00 | 63 | 1016.2 |
| 20260901121226 | 54 | 81 | 3.0 | 3.0 | 0.00 | 0.00 | 0.00 | 63 | 1016.3 |
| 20260901120725 | 55 | 79 | 3.0 | 6.0 | 0.00 | 0.00 | 0.00 | 61 | 1016.3 |
| 20260901120220 | 54 | 74 | 3.0 | 4.0 | 0.00 | 0.00 | 0.00 | 62 | 1016.4 |
| 20260901115715 | 54 | 75 | 4.0 | 4.0 | 0.00 | 0.00 | 0.00 | 62 | 1016.3 |
| 20260901115212 | 54 | 70 | 3.0 | 4.0 | 0.00 | 0.00 | 0.00 | 63 | 1016.4 |
| 20260901114709 | 55 | 71 | 4.0 | 4.0 | 0.00 | 0.00 | 0.00 | 62 | 1016.2 |
| 20260901114209 | 56 | 97 | 4.0 | 7.0 | 0.00 | 0.00 | 0.00 | 60 | 1016.3 |
| 20260901113707 | 55 | 102 | 4.0 | 6.0 | 0.00 | 0.00 | 0.00 | 61 | 1016.4 |
| 20260901113203 | 55 | 90 | 4.0 | 6.0 | 0.00 | 0.00 | 0.00 | 61 | 1016.3 |
| 20260901112701 | 55 | 80 | 4.0 | 4.0 | 0.00 | 0.00 | 0.00 | 62 | 1016.3 |
| 20260901112156 | 55 | 81 | 3.0 | 4.0 | 0.00 | 0.00 | 0.00 | 61 | 1016.4 |
| 20260901111656 | 55 | 95 | 5.0 | 6.0 | 0.00 | 0.00 | 0.00 | 61 | 1016.4 |
| 20260901111156 | 55 | 81 | 4.0 | 4.0 | 0.00 | 0.00 | 0.00 | 61 | 1016.5 |
| 20260901110656 | 55 | 69 | 4.0 | 6.0 | 0.00 | 0.00 | 0.00 | 60 | 1016.3 |
| 20260901110151 | 55 | 78 | 3.0 | 4.0 | 0.00 | 0.00 | 0.00 | 62 | 1016.3 |
| 20260901105648 | 55 | 74 | 3.0 | 4.0 | 0.00 | 0.00 | 0.00 | 61 | 1016.4 |
| 20260901105147 | 55 | 73 | 2.0 | 3.0 | 0.00 | 0.00 | 0.00 | 62 | 1016.5 |
| 20260901104644 | 55 | 84 | 2.0 | 3.0 | 0.00 | 0.00 | 0.00 | 60 | 1016.5 |
| 20260901104138 | 55 | 75 | 2.0 | 3.0 | 0.00 | 0.00 | 0.00 | 60 | 1016.6 |
| 20260901103638 | 56 | 66 | 2.0 | 3.0 | 0.00 | 0.00 | 0.00 | 59 | 1016.4 |
| 20260901103134 | 56 | 76 | 2.0 | 3.0 | 0.00 | 0.00 | 0.00 | 59 | 1016.3 |
| 20260901102633 | 56 | 76 | 3.0 | 4.0 | 0.00 | 0.00 | 0.00 | 59 | 1016.4 |
| 20260901102127 | 56 | 55 | 4.0 | 4.0 | 0.00 | 0.00 | 0.00 | 58 | 1016.4 |
| 20260901101624 | 56 | 60 | 3.0 | 3.0 | 0.00 | 0.00 | 0.00 | 58 | 1016.4 |
| 20260901101123 | 56 | 60 | 3.0 | 4.0 | 0.00 | 0.00 | 0.00 | 58 | 1016.5 |
| 20260901100623 | 56 | 62 | 3.0 | 4.0 | 0.00 | 0.00 | 0.00 | 59 | 1016.6 |
| 20260901100118 | 55 | 69 | 3.0 | 4.0 | 0.00 | 0.00 | 0.00 | 60 | 1016.7 |
| 20260901095616 | 55 | 72 | 3.0 | 3.0 | 0.00 | 0.00 | 0.00 | 60 | 1016.6 |
| 20260901095114 | 55 | 69 | 4.0 | 4.0 | 0.00 | 0.00 | 0.00 | 60 | 1016.5 |
| 20260901094609 | 55 | 76 | 4.0 | 6.0 | 0.00 | 0.00 | 0.00 | 60 | 1016.5 |
| 20260901094103 | 54 | 71 | 5.0 | 6.0 | 0.00 | 0.00 | 0.00 | 61 | 1016.6 |
| 20260901093558 | 55 | 73 | 4.0 | 6.0 | 0.00 | 0.00 | 0.00 | 60 | 1016.5 |
| 20260901093058 | 55 | 63 | 4.0 | 7.0 | 0.00 | 0.00 | 0.00 | 61 | 1016.6 |
| 20260901092554 | 55 | 53 | 6.0 | 7.0 | 0.00 | 0.00 | 0.00 | 60 | 1016.5 |
| 20260901092049 | 55 | 72 | 4.0 | 6.0 | 0.00 | 0.00 | 0.00 | 60 | 1016.3 |
| 20260901091545 | 55 | 56 | 5.0 | 6.0 | 0.00 | 0.00 | 0.00 | 60 | 1016.6 |
| 20260901091045 | 55 | 50 | 5.0 | 7.0 | 0.00 | 0.00 | 0.00 | 60 | 1016.5 |